Location: Northcutt
(34.7304°N, 84.4305°W)
Time: 03:59:13
(UTC+00:00)

Vanguard 2 - Pass Details

Date: 12 October 2022
Orbit: 553 x 2933 km, 32.9° (Epoch: 05 December)

Event Time Altitude Azimuth Distance (km) Brightness Sun altitude
Rises 17:14:33 0° 262° (W) 3,687 11.1 47.6°
Reaches altitude 10° 17:16:43 10° 262° (W) 2,960 10.7 47.7°
Maximum altitude 17:24:12 81° 176° (S) 1,576 10.3 47.7°
Drops below altitude 10° 17:37:10 10° 91° (E) 4,896 11.7 47.6°
Sets 17:41:47 0° 91° (E) 6,217 12.1 47.5°
